1485489601.05,60938,8.88,73962.8,-6.35,-37.81,-37.99,0,*5D
1485489602.32,60939,8.88,73960.3,-6.35,-37.81,-37.99,0,*5C
1485489603.55,60940,8.88,73962.0,-6.35,-37.81,-38.05,0,*58
1485489604.8,60941,8.88,73960.8,-6.37,-37.93,-38.05,0,*58
1485489606.08,60942,8.88,73960.8,-6.37,-37.93,-38.11,0,*5E
1485489607.33,60943,8.88,73960.5,-6.37,-37.75,-37.93,0,*52
1485489608.58,60944,8.88,73962.3,-6.37,-37.75,-37.81,0,*56
1485489609.83,60945,8.88,73964.0,-6.37,-37.75,-38.11,0,*51
1485489611.07,60946,8.88,73962.8,-6.35,-37.69,-37.87,0,*5D
1485489612.33,60947,8.88,73962.0,-6.35,-37.69,-37.81,0,*5A
1485489613.59,60948,8.88,73962.8,-6.35,-37.69,-37.99,0,*5C
1485489614.82,60949,8.88,73962.3,-6.37,-37.87,-38.05,0,*55
1485489616.08,60950,8.88,73962.8,-6.37,-37.87,-37.93,0,*5D
1485489617.31,60951,8.88,73962.0,-6.37,-37.57,-37.87,0,*54
1485489618.55,60952,8.88,73960.3,-6.37,-37.87,-37.87,0,*5A
1485489619.8,60953,8.88,73962.5,-6.37,-37.75,-37.93,0,*53
1485489621.05,60954,8.88,73960.3,-6.37,-38.05,-38.11,0,*59
1485489622.29,60955,8.88,73962.3,-6.35,-37.87,-37.99,0,*50
1485489623.54,60956,8.88,73966.5,-6.37,-37.75,-37.93,0,*56
1485489624.8,60957,8.88,73966.3,-6.39,-37.93,-37.99,0,*5B
1485489626.06,60958,8.88,73962.8,-6.39,-37.69,-37.99,0,*51
1485489627.32,60959,8.88,73964.3,-6.41,-37.75,-37.99,0,*52
1485489628.59,60960,8.88,73960.0,-6.39,-37.81,-37.99,0,*5C
1485489629.82,60961,8.88,73962.5,-6.37,-37.57,-37.87,0,*57
1485489631.08,60962,8.88,73964.8,-6.39,-37.81,-37.93,0,*54
1485489632.34,60963,8.88,73962.0,-6.39,-37.63,-37.93,0,*59
1485489633.55,60964,8.88,73962.3,-6.39,-37.57,-37.75,0,*51
1485489634.78,60965,8.88,73966.8,-6.39,-37.57,-37.81,0,*5B
1485489636.04,60966,8.88,73966.3,-6.39,-37.63,-37.81,0,*5F
1485489637.28,60967,8.88,73962.3,-6.39,-37.75,-37.81,0,*59
1485489638.51,60968,8.88,73960.8,-6.39,-37.75,-37.81,0,*56
1485489639.77,60969,8.88,73966.0,-6.39,-37.63,-37.93,0,*53
1485489641.03,60970,8.88,73960.3,-6.39,-37.63,-37.81,0,*58
1485489642.28,60971,8.88,73962.0,-6.39,-37.63,-37.93,0,*5A
1485489643.52,60972,8.88,73960.8,-6.39,-37.75,-37.99,0,*54
1485489644.75,60973,8.88,73964.0,-6.39,-37.75,-37.93,0,*5F
1485489646.01,60974,8.88,73964.8,-6.41,-37.75,-37.99,0,*5D
1485489647.26,60975,8.88,73960.5,-6.37,-37.75,-37.93,0,*57
1485489648.51,60976,8.88,73960.0,-6.37,-37.75,-37.93,0,*54
1485489649.77,60977,8.88,73962.3,-6.39,-37.63,-37.93,0,*5C
1485489651.06,60978,8.88,73964.8,-6.41,-37.81,-37.99,0,*5A
1485489652.34,60979,8.88,73966.5,-6.41,-37.63,-37.93,0,*5D
1485489653.59,60980,8.88,73960.0,-6.39,-37.63,-37.93,0,*54
1485489654.88,60981,8.88,73962.3,-6.41,-37.81,-37.93,0,*56
1485489656.14,60982,8.88,73960.5,-6.39,-37.63,-37.93,0,*56
1485489657.37,60983,8.88,73966.3,-6.39,-37.75,-37.99,0,*5A
1485489658.63,60984,8.88,73962.3,-6.39,-37.93,-37.93,0,*5F
1485489659.86,60985,8.88,73964.3,-6.39,-37.93,-38.17,0,*5D
1485489661.15,60986,8.88,73962.0,-6.41,-37.81,-38.11,0,*54
1485489662.44,60987,8.88,73960.8,-6.41,-37.81,-37.93,0,*50
1485489663.67,60988,8.88,73964.3,-6.39,-37.75,-37.99,0,*51
1485489664.9,60989,8.88,73962.5,-6.39,-37.99,-38.17,0,*5B
1485489666.2,60990,8.88,73962.0,-6.41,-37.81,-37.99,0,*5C
1485489667.48,60991,8.88,73960.0,-6.41,-37.81,-38.11,0,*52
1485489668.72,60992,8.88,73964.0,-6.43,-37.81,-38.05,0,*56
1485489670.0,60993,8.88,73966.5,-6.41,-37.93,-37.99,0,*5C
1485489671.29,60994,8.88,73962.5,-6.41,-37.81,-38.11,0,*57
1485489672.54,60995,8.88,73964.5,-6.39,-37.99,-38.11,0,*50
1485489673.8,60996,8.88,73962.3,-6.41,-38.11,-38.35,0,*55
1485489675.06,60997,8.88,73962.8,-6.41,-37.81,-38.17,0,*52
1485489676.34,60998,8.88,73966.3,-6.41,-37.93,-38.11,0,*58
1485489677.55,60999,8.88,73960.0,-6.43,-38.05,-38.35,0,*5D
1485489678.78,61000,8.88,73966.3,-6.45,-37.87,-38.17,0,*56
1485489679.99,61001,8.88,73966.5,-6.43,-37.87,-38.17,0,*51
1485489681.26,61002,8.88,73960.0,-6.43,-37.81,-37.99,0,*5D
1485489682.46,61003,8.88,73962.3,-6.43,-38.05,-38.17,0,*56
1485489683.69,61004,8.88,73960.0,-6.43,-38.23,-38.43,0,*54
1485489684.9,61005,8.88,73962.5,-6.43,-38.17,-38.35,0,*53
1485489686.13,61006,8.88,73962.3,-6.43,-38.05,-38.23,0,*54
1485489687.36,61007,8.88,73960.3,-6.45,-38.05,-38.17,0,*54
1485489688.62,61008,8.88,73964.8,-6.45,-38.05,-38.23,0,*5C
1485489689.86,61009,8.88,73960.0,-6.43,-38.05,-38.23,0,*5B
1485489691.11,61010,8.88,73964.5,-6.45,-37.99,-38.17,0,*58
1485489692.35,61011,8.88,73962.8,-6.45,-37.87,-38.17,0,*56
1485489693.6,61012,8.88,73966.3,-6.45,-37.99,-38.17,0,*5A
1485489694.87,61013,8.88,73960.3,-6.45,-37.87,-38.23,0,*53
1485489696.1,61014,8.88,73964.5,-6.47,-38.05,-38.23,0,*53
1485489697.31,61015,8.88,73960.5,-6.47,-38.05,-38.35,0,*55
1485489698.53,61016,8.88,73966.0,-6.47,-37.87,-38.17,0,*53
1485489699.73,61017,8.88,73962.5,-6.51,-37.87,-38.05,0,*56
1485489700.95,61018,8.88,73962.3,-6.47,-37.87,-38.17,0,*5D
1485489702.18,61019,8.88,73962.0,-6.47,-38.17,-38.23,0,*5D
1485489703.42,61020,8.88,73960.5,-6.47,-38.17,-38.23,0,*57
1485489704.63,61021,8.88,73964.5,-6.47,-37.87,-38.05,0,*54
1485489705.86,61022,8.88,73966.3,-6.51,-38.05,-38.29,0,*5B
1485489707.13,61023,8.88,73962.3,-6.51,-37.99,-38.29,0,*50
1485489708.34,61024,8.88,73962.8,-6.47,-37.87,-38.05,0,*51
1485489709.55,61025,8.88,73960.8,-6.51,-37.87,-38.05,0,*57
1485489710.75,61026,8.88,73960.3,-6.51,-37.87,-38.05,0,*54
1485489711.96,61027,8.88,73966.0,-6.51,-37.75,-38.05,0,*58
1485489713.17,61028,8.88,73960.5,-6.47,-37.87,-38.05,0,*5D
1485489714.37,61029,8.88,73960.5,-6.51,-38.05,-38.05,0,*5E
1485489715.57,61030,8.88,73964.8,-6.51,-37.75,-38.05,0,*5E
1485489716.83,61031,8.88,73962.8,-6.51,-37.69,-37.93,0,*52
1485489718.07,61032,8.88,73964.3,-6.51,-37.87,-37.93,0,*51
1485489719.33,61033,8.88,73960.3,-6.51,-37.93,-38.23,0,*51
1485489720.56,61034,8.88,73964.3,-6.51,-38.05,-38.23,0,*56
1485489721.8,61035,8.88,73964.5,-6.51,-37.87,-38.11,0,*53
1485489723.03,61036,8.88,73960.5,-6.51,-37.75,-38.11,0,*5D
1485489724.26,61037,8.88,73964.0,-6.51,-37.75,-37.93,0,*59
1485489725.52,61038,8.88,73964.8,-6.53,-37.99,-38.17,0,*55
1485489726.72,61039,8.88,73964.5,-6.51,-37.75,-38.05,0,*57
1485489727.98,61040,8.88,73964.8,-6.53,-37.81,-38.17,0,*53
1485489729.26,61041,8.88,73964.0,-6.53,-37.93,-38.11,0,*57
1485489730.54,61042,8.88,73962.8,-6.53,-37.93,-38.11,0,*54
1485489731.83,61043,8.88,73962.8,-6.53,-37.81,-38.11,0,*56
1485489733.11,61044,8.88,73964.0,-6.53,-37.93,-38.11,0,*52
1485489734.34,61045,8.88,73966.0,-6.51,-37.93,-38.05,0,*54
1485489735.57,61046,8.88,73962.8,-6.55,-37.93,-38.17,0,*50
1485489736.78,61047,8.88,73962.5,-6.51,-37.87,-38.05,0,*53
1485489738.05,61048,8.88,73962.0,-6.55,-37.99,-37.99,0,*5D
1485489739.33,61049,8.88,73962.8,-6.53,-37.93,-38.11,0,*5F
1485489740.59,61050,8.88,73960.0,-6.55,-37.81,-38.11,0,*52
1485489741.85,61051,8.88,73964.5,-6.55,-37.93,-38.11,0,*50
1485489743.09,61052,8.88,73960.8,-6.55,-37.81,-38.17,0,*56
1485489744.38,61053,8.88,73962.3,-6.53,-37.81,-38.11,0,*57
1485489745.65,61054,8.88,73962.0,-6.55,-37.81,-37.99,0,*59
1485489746.91,61055,8.88,73962.5,-6.53,-37.93,-38.17,0,*54
1485489748.17,61056,8.88,73964.0,-6.55,-37.81,-38.11,0,*54
1485489749.47,61057,8.88,73962.5,-6.53,-37.81,-37.99,0,*5C
1485489750.75,61058,8.88,73960.8,-6.53,-37.81,-38.11,0,*5C
1485489752.02,61059,8.88,73960.0,-6.55,-37.93,-37.99,0,*57
1485489753.29,61060,8.88,73960.8,-6.55,-37.81,-37.99,0,*5E
1485489754.53,61061,8.88,73960.3,-6.55,-37.75,-37.99,0,*54
1485489755.8,61062,8.88,73962.0,-6.55,-37.69,-37.99,0,*5A
1485489757.07,61063,8.88,73962.3,-6.55,-37.81,-37.99,0,*5D
1485489758.35,61064,8.88,73964.3,-6.53,-37.69,-37.93,0,*50
1485489759.61,61065,8.88,73960.5,-6.55,-37.93,-38.11,0,*57
1485489760.87,61066,8.88,73966.5,-6.55,-37.81,-38.11,0,*57
1485489762.13,61067,8.88,73960.5,-6.53,-37.75,-37.93,0,*5E
1485489763.39,61068,8.88,73960.8,-6.55,-37.69,-37.93,0,*5A
1485489764.63,61069,8.88,73960.5,-6.55,-37.75,-37.99,0,*5C
1485489765.88,61070,8.88,73968.0,-6.55,-37.93,-38.11,0,*53
1485489767.15,61071,8.88,73960.0,-6.55,-37.81,-38.11,0,*51
1485489768.43,61072,8.88,73960.0,-6.53,-37.93,-38.11,0,*57
1485489769.67,61073,8.88,73968.8,-6.55,-37.93,-38.17,0,*56
1485489770.94,61074,8.88,73964.8,-6.55,-37.81,-37.99,0,*5B
1485489772.22,61075,8.88,73962.0,-6.53,-37.69,-37.93,0,*50
1485489773.48,61076,8.88,73958.0,-6.55,-37.69,-37.99,0,*5F
1485489774.75,61077,8.88,73960.8,-6.55,-37.93,-37.99,0,*5B
1485489776.01,61078,8.88,73964.8,-6.55,-37.93,-38.11,0,*5B
1485489777.27,61079,8.88,73960.3,-6.57,-37.75,-37.99,0,*5F
1485489778.54,61080,8.88,73960.8,-6.57,-37.63,-37.87,0,*51
1485489779.84,61081,8.88,73960.3,-6.57,-37.81,-37.99,0,*53
1485489781.11,61082,8.88,73962.5,-6.57,-37.81,-38.05,0,*5A
1485489782.37,61083,8.88,73960.0,-6.55,-37.69,-37.93,0,*5F
1485489783.63,61084,8.88,73960.8,-6.57,-37.81,-38.05,0,*5C
1485489784.86,61085,8.88,73964.8,-6.57,-37.75,-38.05,0,*56
1485489786.1,61086,8.88,73964.8,-6.57,-37.87,-38.05,0,*58
1485489787.34,61087,8.88,73964.3,-6.57,-37.87,-38.05,0,*59
1485489788.61,61088,8.88,73958.0,-6.57,-37.87,-37.99,0,*5C
1485489789.85,61089,8.88,73960.8,-6.59,-37.75,-37.99,0,*5E
1485489791.12,61090,8.88,73960.8,-6.55,-37.69,-37.81,0,*5E
1485489792.41,61091,8.88,73962.0,-6.57,-37.81,-37.99,0,*52
1485489793.67,61092,8.88,73960.0,-6.55,-37.69,-37.93,0,*5F
1485489794.91,61093,8.88,73960.3,-6.55,-37.57,-37.81,0,*50
1485489796.18,61094,8.88,73960.5,-6.55,-37.69,-37.81,0,*5A
1485489797.42,61095,8.88,73962.5,-6.57,-37.75,-37.87,0,*52
1485489798.66,61096,8.88,73964.5,-6.59,-37.63,-37.87,0,*58
1485489799.93,61097,8.88,73958.0,-6.57,-37.63,-37.87,0,*57
1485489801.22,61098,8.88,73960.8,-6.57,-37.63,-37.99,0,*57
1485489802.46,61099,8.88,73960.8,-6.55,-37.75,-37.99,0,*53
1485489803.69,61100,8.88,73962.8,-6.57,-37.57,-37.75,0,*52
1485489804.96,61101,8.88,73958.0,-6.57,-37.57,-37.81,0,*58
1485489806.23,61102,8.88,73960.8,-6.57,-37.63,-37.87,0,*5A
1485489807.46,61103,8.88,73962.0,-6.57,-37.75,-38.05,0,*59
1485489808.69,61104,8.88,73962.0,-6.57,-37.87,-38.05,0,*53
1485489809.96,61105,8.88,73964.3,-6.55,-37.69,-37.99,0,*5A
1485489811.22,61106,8.88,73956.8,-6.57,-37.63,-38.05,0,*5B
1485489812.48,61107,8.88,73962.5,-6.57,-37.81,-38.05,0,*56
1485489813.72,61108,8.88,73960.8,-6.55,-37.75,-37.99,0,*5A
1485489814.99,61109,8.88,73958.5,-6.57,-37.63,-37.87,0,*51
1485489816.26,61110,8.88,73960.3,-6.59,-37.63,-37.99,0,*58
1485489817.52,61111,8.88,73960.5,-6.57,-37.81,-38.05,0,*51
1485489818.79,61112,8.88,73958.3,-6.57,-37.99,-38.17,0,*58
1485489820.05,61113,8.88,73958.8,-6.57,-37.81,-38.05,0,*53
1485489821.35,61114,8.88,73962.8,-6.57,-37.81,-37.99,0,*5E
1485489822.61,61115,8.88,73958.5,-6.57,-37.75,-37.99,0,*54
1485489823.85,61116,8.88,73962.3,-6.57,-37.75,-38.05,0,*5D
1485489825.06,61117,8.88,73960.0,-6.59,-37.75,-37.87,0,*57
1485489826.3,61118,8.88,73962.0,-6.57,-37.57,-37.87,0,*56
1485489827.57,61119,8.88,73960.8,-6.57,-37.75,-37.99,0,*58
1485489828.83,61120,8.88,73962.3,-6.57,-37.75,-37.99,0,*52
1485489830.07,61121,8.88,73960.5,-6.59,-37.75,-37.99,0,*5D
1485489831.36,61122,8.88,73962.0,-6.57,-37.63,-37.81,0,*5E
1485489832.66,61123,8.88,73962.5,-6.57,-37.81,-37.99,0,*5A
1485489833.95,61124,8.88,73960.5,-6.57,-37.63,-37.99,0,*51
1485489835.21,61125,8.88,73962.0,-6.57,-37.99,-38.17,0,*5C
1485489836.48,61126,8.88,73960.3,-6.57,-38.05,-38.23,0,*52
1485489837.73,61127,8.88,73960.8,-6.59,-37.81,-37.87,0,*5F
1485489838.97,61128,8.88,73960.5,-6.57,-37.75,-37.87,0,*55
1485489840.24,61129,8.88,73962.8,-6.57,-37.63,-37.87,0,*53
1485489841.48,61130,8.88,73958.8,-6.59,-37.57,-37.81,0,*54
1485489842.72,61131,8.88,73960.0,-6.59,-37.63,-37.87,0,*54
1485489843.96,61132,8.88,73960.3,-6.59,-37.63,-37.87,0,*57
1485489845.22,61133,8.88,73958.3,-6.57,-37.63,-37.87,0,*58
1485489846.43,61134,8.88,73958.8,-6.59,-37.75,-38.05,0,*53
1485489847.65,61135,8.88,73962.8,-6.59,-37.75,-37.87,0,*57
1485489848.86,61136,8.88,73958.0,-6.59,-37.87,-38.05,0,*5C
1485489850.13,61137,8.88,73962.3,-6.59,-37.81,-37.99,0,*51
1485489851.4,61138,8.88,73956.8,-6.57,-37.57,-37.81,0,*52
1485489852.64,61139,8.88,73956.3,-6.57,-37.75,-37.87,0,*55
1485489853.9,61140,8.88,73956.8,-6.57,-37.75,-37.99,0,*54
1485489855.19,61141,8.88,73960.5,-6.57,-37.63,-37.81,0,*5B
1485489856.43,61142,8.88,73958.5,-6.59,-37.81,-38.05,0,*59
1485489857.65,61143,8.88,73958.3,-6.59,-37.75,-37.87,0,*56
1485489858.89,61144,8.88,73960.0,-6.59,-37.81,-38.05,0,*5F
1485489860.13,61145,8.88,73956.3,-6.59,-37.81,-38.05,0,*5E
1485489861.38,61146,8.88,73958.8,-6.57,-37.63,-38.05,0,*5F
1485489862.62,61147,8.88,73956.8,-6.59,-37.57,-37.81,0,*54
1485489863.86,61148,8.88,73960.0,-6.59,-37.63,-38.05,0,*5F
1485489865.1,61149,8.88,73958.0,-6.57,-37.57,-37.87,0,*52
1485489866.31,61150,8.88,73958.8,-6.59,-37.75,-37.87,0,*54
1485489867.55,61151,8.88,73960.5,-6.59,-37.45,-37.63,0,*5C
1485489868.79,61152,8.88,73960.3,-6.59,-37.57,-37.81,0,*50
1485489870.0,61153,8.88,73956.0,-6.59,-37.57,-37.75,0,*5A
1485489871.24,61154,8.88,73956.8,-6.59,-37.63,-37.87,0,*57
1485489872.53,61155,8.88,73958.8,-6.57,-37.63,-37.99,0,*57
1485489873.8,61156,8.88,73956.0,-6.57,-37.63,-37.87,0,*5B
1485489875.07,61157,8.88,73956.5,-6.57,-37.57,-37.81,0,*5B
1485489876.33,61158,8.88,73960.0,-6.57,-37.75,-37.99,0,*5D
1485489877.6,61159,8.88,73960.3,-6.57,-37.75,-37.99,0,*5C
1485489878.9,61160,8.88,73956.5,-6.57,-37.81,-37.99,0,*5D
1485489880.13,61161,8.88,73956.0,-6.57,-37.87,-38.05,0,*50
1485489881.4,61162,8.88,73956.8,-6.57,-37.63,-37.87,0,*5C
1485489882.64,61163,8.88,73958.3,-6.59,-37.63,-37.87,0,*53
1485489883.88,61164,8.88,73958.3,-6.59,-37.63,-37.87,0,*54
1485489885.18,61165,8.88,73960.8,-6.57,-37.81,-37.99,0,*58
1485489886.45,61166,8.88,73956.3,-6.57,-37.81,-38.05,0,*51
1485489887.66,61167,8.88,73958.8,-6.59,-37.87,-38.05,0,*58
1485489888.93,61168,8.88,73960.3,-6.57,-37.81,-38.05,0,*5F
1485489890.17,61169,8.88,73958.8,-6.59,-37.75,-37.99,0,*51
1485489891.37,61170,8.88,73958.8,-6.59,-37.75,-38.05,0,*53
1485489892.61,61171,8.88,73960.8,-6.59,-37.63,-37.87,0,*50
1485489893.88,61172,8.88,73954.3,-6.59,-37.63,-37.81,0,*55
1485489895.14,61173,8.88,73956.3,-6.59,-37.63,-37.81,0,*54
1485489896.38,61174,8.88,73954.3,-6.59,-37.57,-37.81,0,*54
1485489897.65,61175,8.88,73956.3,-6.59,-37.63,-37.81,0,*52
1485489898.89,61176,8.88,73958.5,-6.57,-37.75,-37.87,0,*5E
1485489900.1,61177,8.88,73956.3,-6.59,-37.75,-37.87,0,*51
1485489901.37,61178,8.88,73958.0,-6.59,-37.63,-37.81,0,*5F
1485489902.61,61179,8.88,73956.3,-6.59,-37.57,-37.81,0,*59
1485489903.87,61180,8.88,73954.3,-6.57,-37.81,-38.05,0,*59
1485489905.09,61181,8.88,73958.3,-6.59,-37.87,-38.05,0,*50
1485489906.32,61182,8.88,73958.0,-6.59,-37.75,-37.99,0,*54
1485489907.53,61183,8.88,73954.8,-6.59,-37.75,-38.05,0,*5F
1485489908.77,61184,8.88,73956.3,-6.59,-37.57,-37.81,0,*5B
1485489910.03,61185,8.88,73960.8,-6.59,-37.63,-37.81,0,*5D
1485489911.25,61186,8.88,73958.3,-6.59,-37.75,-37.87,0,*5F
1485489912.51,61187,8.88,73958.0,-6.57,-37.75,-37.99,0,*5F
1485489913.78,61188,8.88,73956.8,-6.59,-37.63,-37.81,0,*50
1485489914.99,61189,8.88,73958.8,-6.59,-37.75,-37.87,0,*50
1485489916.23,61190,8.88,73956.3,-6.59,-37.57,-37.81,0,*5E
1485489917.44,61191,8.88,73956.5,-6.59,-37.57,-37.75,0,*54
1485489918.71,61192,8.88,73958.3,-6.59,-37.63,-37.81,0,*5B
1485489919.97,61193,8.88,73958.8,-6.57,-37.63,-38.05,0,*57
1485489921.18,61194,8.88,73956.5,-6.59,-37.87,-38.05,0,*54
1485489922.39,61195,8.88,73956.0,-6.59,-37.87,-38.05,0,*55
1485489923.65,61196,8.88,73958.0,-6.61,-37.93,-38.23,0,*5C
1485489924.91,61197,8.88,73954.5,-6.61,-37.93,-38.23,0,*5D
1485489926.21,61198,8.88,73958.3,-6.57,-37.81,-37.99,0,*5A
1485489927.45,61199,8.88,73958.0,-6.59,-37.81,-38.05,0,*5F
1485489928.73,61200,8.88,73958.8,-6.59,-37.81,-37.99,0,*56
1485489929.96,61201,8.88,73958.5,-6.61,-37.81,-38.05,0,*56
1485489931.2,61202,8.88,73956.0,-6.59,-37.57,-37.81,0,*56
1485489932.44,61203,8.88,73956.5,-6.59,-37.63,-37.87,0,*56
1485489933.72,61204,8.88,73960.3,-6.63,-37.69,-37.93,0,*57
1485489934.98,61205,8.88,73954.3,-6.61,-37.81,-37.93,0,*52
1485489936.22,61206,8.88,73956.0,-6.59,-37.57,-37.99,0,*5B
1485489937.44,61207,8.88,73956.0,-6.59,-37.57,-37.75,0,*58
1485489938.65,61208,8.81,73950.5,-6.59,-37.75,-37.87,0,*5A
1485489939.91,61209,8.88,73954.8,-6.57,-37.75,-37.99,0,*5A
1485489941.18,61210,8.88,73952.8,-6.57,-37.63,-37.87,0,*5A
1485489942.42,61211,8.88,73956.8,-6.59,-37.57,-37.81,0,*54
1485489943.68,61212,8.88,73956.5,-6.61,-37.63,-37.81,0,*5B
1485489944.94,61213,8.88,73958.5,-6.61,-37.69,-37.93,0,*53
1485489946.15,61214,8.88,73958.0,-6.59,-37.57,-37.87,0,*57
1485489947.39,61215,8.88,73956.8,-6.59,-37.57,-37.81,0,*50
1485489948.63,61216,8.88,73956.0,-6.59,-37.57,-37.81,0,*53
1485489949.89,61217,8.88,73962.5,-6.59,-37.63,-37.81,0,*55
1485489951.13,61218,8.88,73956.0,-6.59,-37.81,-38.05,0,*55
1485489952.35,61219,8.88,73956.8,-6.59,-37.87,-38.05,0,*52
1485489953.61,61220,8.88,73958.3,-6.59,-37.63,-37.99,0,*58
1485489954.9,61221,8.88,73958.0,-6.63,-37.69,-37.81,0,*53
1485489956.15,61222,8.88,73958.3,-6.61,-37.63,-37.93,0,*5B
1485489957.39,61223,8.88,73956.3,-6.61,-37.69,-37.87,0,*55
1485489958.6,61224,8.88,73956.8,-6.61,-37.87,-38.05,0,*57
1485489959.86,61225,8.88,73956.5,-6.61,-37.81,-38.11,0,*55
1485489961.09,61226,8.88,73958.5,-6.61,-37.81,-38.05,0,*53
1485489962.35,61227,8.88,73958.5,-6.61,-37.63,-37.81,0,*5D
1485489963.59,61228,8.88,73952.0,-6.61,-37.87,-38.11,0,*5E
1485489964.82,61229,8.88,73954.5,-6.61,-37.87,-38.11,0,*5F
1485489966.05,61230,8.88,73952.3,-6.61,-37.81,-38.05,0,*54
1485489967.31,61231,8.88,73954.8,-6.61,-37.93,-38.11,0,*53
1485489968.56,61232,8.88,73956.8,-6.61,-37.93,-38.11,0,*50
1485489969.82,61233,8.88,73956.3,-6.63,-37.81,-38.05,0,*55
1485489971.09,61234,8.88,73956.5,-6.63,-37.63,-37.87,0,*5B
1485489972.32,61235,8.88,73954.0,-6.61,-37.81,-38.05,0,*51
1485489973.58,61236,8.88,73956.3,-6.61,-37.69,-37.93,0,*54
1485489974.8,61237,8.88,73954.5,-6.61,-37.69,-38.05,0,*55
1485489976.07,61238,8.88,73952.8,-6.63,-37.87,-38.11,0,*5D
1485489977.3,61239,8.88,73956.0,-6.61,-37.81,-38.05,0,*5D
1485489978.53,61240,8.88,73956.0,-6.61,-37.63,-37.87,0,*5A
1485489979.79,61241,8.88,73956.0,-6.61,-37.63,-37.93,0,*5E
1485489981.07,61242,8.88,73960.0,-6.63,-37.63,-37.93,0,*5F
1485489982.28,61243,8.88,73956.3,-6.61,-37.87,-38.05,0,*56
1485489983.54,61244,8.88,73958.8,-6.63,-37.63,-37.87,0,*5C
1485489984.81,61245,8.88,73960.5,-6.63,-37.69,-37.87,0,*57
1485489986.07,61246,8.88,73958.0,-6.63,-37.63,-37.87,0,*5E
1485489987.32,61247,8.88,73958.8,-6.61,-37.69,-37.93,0,*52
1485489988.56,61248,8.88,73960.0,-6.61,-37.81,-38.05,0,*5B
1485489989.81,61249,8.88,73956.8,-6.61,-37.69,-37.93,0,*5C
1485489991.08,61250,8.88,73956.3,-6.63,-37.81,-38.05,0,*50
1485489992.36,61251,8.88,73960.3,-6.63,-37.81,-38.11,0,*54
1485489993.65,61252,8.88,73958.8,-6.63,-37.81,-38.11,0,*57
1485489994.88,61253,8.88,73954.8,-6.61,-37.87,-38.11,0,*52
1485489996.15,61254,8.88,73956.8,-6.63,-37.81,-38.05,0,*54
1485489997.41,61255,8.88,73956.0,-6.63,-37.81,-38.05,0,*55
1485489998.67,61256,8.88,73956.0,-6.63,-37.63,-37.87,0,*5F
1485489999.95,61257,8.88,73956.0,-6.63,-37.63,-37.93,0,*5B
1485490001.24,61258,8.88,73960.0,-6.63,-37.81,-38.11,0,*5D
1485490002.5,61259,8.88,73962.0,-6.63,-37.81,-38.05,0,*59
1485490003.78,61260,8.88,73956.3,-6.63,-37.93,-38.11,0,*55
1485490005.04,61261,8.88,73952.8,-6.63,-37.87,-38.11,0,*51
1485490006.3,61262,8.88,73952.3,-6.63,-37.81,-38.05,0,*51
1485490007.56,61263,8.88,73956.0,-6.63,-37.81,-38.05,0,*50
1485490008.85,61264,8.88,73958.5,-6.63,-37.69,-37.93,0,*51
1485490010.11,61265,8.88,73956.0,-6.63,-37.81,-38.05,0,*56
1485490011.37,61266,8.88,73958.3,-6.65,-37.69,-37.93,0,*55
1485490012.58,61267,8.88,73954.3,-6.65,-37.87,-38.17,0,*57
1485490013.81,61268,8.88,73956.3,-6.65,-37.93,-38.17,0,*5D
1485490015.08,61269,8.88,73956.0,-6.63,-37.81,-38.05,0,*5A
1485490016.31,61270,8.88,73954.8,-6.65,-37.87,-38.11,0,*57
1485490017.55,61271,8.88,73956.5,-6.65,-37.69,-37.87,0,*56
1485490018.79,61272,8.88,73954.8,-6.65,-37.87,-37.93,0,*50
1485490020.05,61273,8.88,73950.3,-6.65,-37.69,-38.11,0,*54
1485490021.31,61274,8.88,73954.5,-6.65,-37.93,-37.99,0,*59
1485490022.54,61275,8.88,73958.8,-6.65,-37.75,-38.11,0,*5F
1485490023.78,61276,8.88,73956.3,-6.65,-37.93,-38.17,0,*52
1485490024.99,61277,8.88,73954.5,-6.65,-37.87,-38.17,0,*56
1485490026.22,61278,8.88,73952.3,-6.65,-37.93,-38.17,0,*5C
1485490027.48,61279,8.88,73954.3,-6.65,-37.69,-37.93,0,*5B
1485490028.72,61280,8.88,73956.5,-6.65,-37.75,-37.99,0,*5A
1485490029.98,61281,8.88,73952.5,-6.65,-37.69,-37.99,0,*56
1485490031.24,61282,8.88,73958.3,-6.63,-37.87,-38.11,0,*5C
1485490032.5,61283,8.88,73954.3,-6.65,-37.93,-38.11,0,*5E
1485490033.77,61284,8.88,73952.8,-6.65,-37.69,-37.99,0,*53
1485490035.0,61285,8.88,73952.0,-6.65,-37.75,-37.99,0,*5F
1485490036.24,61286,8.88,73954.8,-6.65,-37.87,-37.99,0,*51
1485490037.5,61287,8.88,73952.0,-6.65,-37.69,-37.93,0,*5A
1485490038.79,61288,8.88,73956.3,-6.67,-37.69,-37.93,0,*57
1485490040.05,61289,8.88,73954.8,-6.65,-37.69,-37.93,0,*54
1485490041.31,61290,8.88,73954.8,-6.63,-37.63,-37.87,0,*55
1485490042.57,61291,8.88,73952.8,-6.63,-37.63,-37.87,0,*54
1485490043.81,61292,8.88,73954.5,-6.65,-37.87,-38.11,0,*5B
1485490045.04,61293,8.88,73956.5,-6.65,-37.75,-38.11,0,*57
1485490046.33,61294,8.88,73954.3,-6.63,-37.63,-37.63,0,*5B
1485490047.57,61295,8.88,73950.3,-6.65,-37.75,-37.99,0,*5E
1485490048.83,61296,8.88,73956.5,-6.67,-37.75,-37.99,0,*5F
1485490050.09,61297,8.88,73952.3,-6.65,-37.63,-37.99,0,*5B
1485490051.3,61298,8.88,73954.3,-6.65,-37.75,-38.17,0,*5A
1485490052.55,61299,8.88,73956.5,-6.65,-37.87,-37.99,0,*5F
1485490053.77,61300,8.88,73956.0,-6.65,-37.57,-37.69,0,*5C
1485490055.04,61301,8.88,73954.8,-6.67,-37.51,-37.75,0,*54
1485490056.25,61302,8.88,73952.3,-6.65,-37.57,-37.87,0,*5E
1485490057.49,61303,8.88,73952.5,-6.67,-37.57,-37.87,0,*5D
1485490058.73,61304,8.88,73954.5,-6.65,-37.75,-37.99,0,*57
1485490059.98,61305,8.88,73954.0,-6.65,-37.69,-38.11,0,*54
1485490061.22,61306,8.88,73954.5,-6.65,-37.69,-37.87,0,*57
1485490062.48,61307,8.88,73954.3,-6.65,-37.69,-37.93,0,*53
1485490063.74,61308,8.88,73954.3,-6.67,-37.75,-37.93,0,*53
1485490065.0,61309,8.88,73954.0,-6.63,-37.63,-37.87,0,*54
1485490066.24,61310,8.88,73952.5,-6.65,-37.69,-37.87,0,*50
1485490067.51,61311,8.88,73950.5,-6.65,-37.69,-37.99,0,*5E
1485490068.77,61312,8.88,73952.5,-6.65,-37.69,-37.93,0,*57
1485490070.0,61313,8.88,73954.8,-6.65,-37.75,-37.99,0,*51
1485490071.27,61314,8.88,73952.3,-6.63,-37.63,-37.87,0,*58
1485490072.55,61315,8.88,73952.3,-6.63,-37.63,-37.81,0,*5F
1485490073.82,61316,8.88,73954.0,-6.67,-37.87,-37.93,0,*51
1485490075.05,61317,8.88,73952.8,-6.65,-37.75,-37.93,0,*5F
1485490076.31,61318,8.88,73952.8,-6.67,-37.87,-38.11,0,*5A
1485490077.58,61319,8.88,73954.3,-6.67,-37.87,-37.99,0,*54
1485490078.84,61320,8.88,73956.8,-6.65,-37.69,-37.93,0,*56
1485490080.1,61321,8.88,73958.5,-6.65,-37.69,-37.93,0,*57
1485490081.34,61322,8.88,73952.8,-6.65,-37.75,-37.99,0,*53
1485490082.63,61323,8.88,73956.0,-6.67,-37.69,-37.93,0,*57
1485490083.89,61324,8.88,73956.3,-6.67,-37.69,-37.87,0,*55
1485490085.12,61325,8.88,73958.8,-6.65,-37.75,-37.93,0,*5E
1485490086.37,61326,8.88,73956.0,-6.65,-37.87,-37.99,0,*5A
1485490087.62,61327,8.88,73954.5,-6.65,-37.93,-38.11,0,*51
1485490088.89,61328,8.88,73954.8,-6.67,-37.75,-37.99,0,*5B
1485490090.13,61329,8.88,73954.8,-6.65,-37.87,-37.99,0,*55
1485490091.37,61330,8.88,73952.8,-6.65,-37.75,-37.99,0,*50
1485490092.63,61331,8.88,73954.3,-6.65,-37.69,-37.93,0,*56
1485490093.89,61332,8.88,73954.8,-6.65,-37.69,-37.99,0,*5F
1485490095.1,61333,8.88,73952.5,-6.65,-37.57,-37.87,0,*5C
1485490096.34,61334,8.88,73948.5,-6.65,-37.87,-38.11,0,*56
1485490097.6,61335,8.88,73954.8,-6.67,-37.87,-38.11,0,*55
1485490098.85,61336,8.88,73956.8,-6.65,-37.87,-37.99,0,*5B
1485490100.08,61337,8.88,73956.8,-6.65,-37.93,-38.17,0,*56
1485490101.34,61338,8.88,73954.5,-6.67,-37.99,-38.17,0,*51
1485490102.6,61339,8.88,73954.3,-6.65,-37.69,-37.93,0,*5E
1485490103.84,61340,8.88,73954.3,-6.67,-37.75,-37.87,0,*5A
1485490105.11,61341,8.88,73954.3,-6.67,-37.87,-38.11,0,*56
1485490106.37,61342,8.88,73954.5,-6.67,-37.87,-37.93,0,*50
1485490107.63,61343,8.88,73952.5,-6.67,-37.69,-37.75,0,*59
1485490108.89,61344,8.88,73952.8,-6.65,-37.69,-37.93,0,*54